Location: Beneden-Haastrecht
(52.0012°N, 4.7557°E)
Time: 03:11:41
(UTC+00:00)

MetOp-A - Pass Details

Date: 24 October 2020
Orbit: 819 x 821 km, 98.5° (Epoch: 27 November)

Event Time Altitude Azimuth Distance (km) Brightness Sun altitude
Exits shadow 19:24:27 81° 6° (N) 839 4.0 -27.7°
Drops below altitude 10° 19:29:35 10° 346° (NNW) 2,432 6.9 -28.5°
Sets 19:31:57 0° 346° (NNW) 3,369 7.7 -28.8°
